Sunshine Coast Airport Observation History
Time Wind Speed Temp Pressure Rel. Hum Rain
26/05:30pm NNE 8-11 kts 19.2°c 1017.4 hPa 72% 0.0mm
26/05:00pm NNE 8-11 kts 20.3°c 1017.1 hPa 68% 0.0mm
26/04:30pm NNE 9-11 kts 20.4°c 1016.8 hPa 72% 0.0mm
26/04:00pm NNE 11-13 kts 20.6°c 1016.6 hPa 72% 0.0mm
26/03:30pm NNE 11-13 kts 21.7°c 1016.4 hPa 68% 0.0mm
26/03:00pm NE 11-13 kts 22.2°c 1016.3 hPa 67% 0.0mm
26/02:30pm NE 10-13 kts 22.1°c 1016.4 hPa 68% 0.0mm
26/02:00pm NE 11-12 kts 22.1°c 1016.4 hPa 69% 0.0mm
26/01:30pm NE 9-11 kts 22.2°c 1016.8 hPa 67% 0.0mm
26/01:00pm NE 9-11 kts 21.6°c 1017.0 hPa 65% 0.0mm
26/12:30pm ENE 8-12 kts 21.4°c 1017.5 hPa 67% 0.0mm
26/12:00pm E 8-10 kts 20.9°c 1018.1 hPa 61% 0.0mm
26/11:30am E 8-11 kts 21.0°c 1018.8 hPa 60% 0.0mm
26/11:00am ESE 9-11 kts 21.0°c 1019.3 hPa 60% 0.0mm
26/10:30am ESE 8-10 kts 20.3°c 1019.6 hPa 60% 0.0mm
26/10:00am ESE 7-9 kts 20.1°c 1019.8 hPa 63% 0.0mm
26/09:30am ESE 6-8 kts 19.6°c 1019.9 hPa 63% 0.0mm
26/09:00am ESE 5-6 kts 19.2°c 1020.1 hPa 66% 0.0mm
26/08:30am SSW 3-4 kts 18.1°c 1019.9 hPa 70% 0.0mm
26/08:00am CALM 0 kts 17.2°c 1019.8 hPa 78% 0.0mm
26/07:30am CALM 0 kts 14.5°c 1019.5 hPa 86% 0.0mm
26/07:00am CALM 0-2 kts 13.3°c 1019.3 hPa 93% 0.0mm
26/06:30am W 5-6 kts 11.9°c 1019.0 hPa 93% 0.0mm
26/06:00am WNW 7-8 kts 11.3°c 1018.6 hPa 93% 0.0mm
26/05:30am NW 9-10 kts 11.5°c 1018.0 hPa 94% 0.0mm
26/05:00am WNW 7-8 kts 11.2°c 1017.6 hPa 93% 0.0mm
26/04:30am WNW 6-8 kts 11.3°c 1017.4 hPa 93% 0.0mm
26/04:00am WNW 7-8 kts 11.3°c 1017.3 hPa 94% 0.0mm
26/03:30am WNW 5-6 kts 10.9°c 1017.4 hPa 94% 0.0mm
26/03:00am WNW 5-6 kts 10.7°c 1017.5 hPa 93% 0.0mm
26/02:30am WNW 5-6 kts 10.1°c 1017.6 hPa 90% 0.0mm
26/02:00am W 5-6 kts 11.2°c 1017.8 hPa 92% 0.0mm
26/01:30am WNW 5 kts 10.8°c 1017.9 hPa 90% 0.0mm
26/01:00am WNW 5-6 kts 11.3°c 1018.2 hPa 90% 0.0mm
26/12:30am W 4-5 kts 11.9°c 1018.5 hPa 90% 0.0mm
26/12:00am W 6-7 kts 12.0°c 1018.6 hPa 89% 0.0mm
Time Wind Speed Temp Pressure Rel. Hum Rain
25/11:30pm NW 5-6 kts 11.7°c 1018.5 hPa 89% 0.0mm
25/11:00pm NW 5-6 kts 12.2°c 1018.6 hPa 90% 0.0mm
25/10:30pm WNW 6-7 kts 11.5°c 1018.6 hPa 86% 0.0mm
25/10:00pm WNW 4 kts 12.5°c 1018.8 hPa 85% 0.0mm
25/09:30pm WNW 5-6 kts 13.0°c 1018.9 hPa 85% 0.0mm
25/09:00pm NW 7 kts 13.1°c 1018.9 hPa 83% 0.0mm
25/08:30pm NW 7-8 kts 13.5°c 1018.7 hPa 82% 0.0mm
25/08:00pm NW 6-8 kts 14.0°c 1018.6 hPa 79% 0.0mm
25/07:30pm NW 5-6 kts 14.8°c 1018.6 hPa 76% 0.0mm
25/07:00pm NW 4-5 kts 15.9°c 1018.4 hPa 71% 0.0mm
25/06:30pm N 7-10 kts 17.3°c 1018.0 hPa 67% 0.0mm
25/06:00pm N 8-11 kts 18.0°c 1017.9 hPa 63% 0.0mm
25/05:30pm NNE 11-14 kts 19.1°c 1017.5 hPa 60% 0.0mm
25/05:00pm NNE 11-14 kts 19.7°c 1017.3 hPa 58% 0.0mm
25/04:30pm NNE 12-15 kts 20.5°c 1017.1 hPa 55% 0.0mm
25/04:00pm NNE 13-16 kts 21.2°c 1016.9 hPa 49% 0.0mm
25/03:30pm NE 12-15 kts 22.2°c 1016.9 hPa 44% 0.0mm
25/03:00pm NE 14-16 kts 22.2°c 1016.8 hPa 41% 0.0mm
25/02:30pm NE 13-15 kts 22.2°c 1017.0 hPa 49% 0.0mm
25/02:00pm NE 13-16 kts 22.4°c 1017.4 hPa 50% 0.0mm
25/01:30pm NE 12-14 kts 22.6°c 1017.7 hPa 52% 0.0mm
25/01:00pm NE 13-15 kts 22.4°c 1017.8 hPa 50% 0.0mm
25/12:30pm NE 11-13 kts 22.6°c 1018.5 hPa 48% 0.0mm
25/12:00pm NE 11-14 kts 22.7°c 1019.0 hPa 47% 0.0mm
25/11:30am NNW 4-7 kts 23.3°c 1019.7 hPa 40% 0.0mm
25/11:00am NNW 9-13 kts 23.0°c 1020.2 hPa 43% 0.0mm
25/10:30am NW 11-15 kts 21.8°c 1020.7 hPa 43% 0.0mm
25/10:00am NW 11-14 kts 21.5°c 1021.0 hPa 47% 0.0mm
25/09:30am NW 10-14 kts 20.7°c 1021.2 hPa 53% 0.0mm
25/09:00am NW 7-11 kts 19.8°c 1021.2 hPa 62% 0.0mm
25/08:30am WNW 7-9 kts 17.4°c 1021.5 hPa 74% 0.0mm
25/08:00am WNW 6-7 kts 15.0°c 1021.5 hPa 87% 0.0mm
25/07:30am WNW 6-7 kts 12.6°c 1021.3 hPa 97% 0.0mm
25/07:00am W 5-6 kts 11.0°c 1021.0 hPa 97% 0.0mm
25/06:30am W 5 kts 9.6°c 1020.7 hPa 97% 0.0mm
25/06:00am W 4-5 kts 9.4°c 1020.6 hPa 96% 0.0mm
25/05:30am W 5-6 kts 9.5°c 1020.3 hPa 96% 0.0mm
25/05:00am WNW 6 kts 9.6°c 1020.3 hPa 96% 0.0mm
25/04:30am W 5 kts 9.5°c 1020.2 hPa 96% 0.0mm
25/04:00am W 4-5 kts 9.2°c 1020.1 hPa 95% 0.0mm
25/03:30am W 3-5 kts 10.2°c 1020.0 hPa 96% 0.0mm
25/03:00am WNW 6-7 kts 9.8°c 1020.1 hPa 95% 0.0mm
25/02:30am WNW 5-6 kts 9.9°c 1020.4 hPa 95% 0.0mm
25/02:00am WNW 7 kts 10.2°c 1020.5 hPa 95% 0.0mm
25/01:30am WNW 5-6 kts 10.3°c 1020.8 hPa 94% 0.0mm
25/01:00am W 5-6 kts 10.2°c 1021.3 hPa 94% 0.0mm
25/12:30am W 4-6 kts 10.6°c 1021.5 hPa 93% 0.0mm
25/12:00am W 4-6 kts 10.7°c 1021.6 hPa 93% 0.0mm
Time Wind Speed Temp Pressure Rel. Hum Rain
24/11:30pm W 4-5 kts 10.8°c 1021.7 hPa 92% 0.0mm
24/11:00pm W 5 kts 11.1°c 1021.8 hPa 92% 0.0mm
24/10:30pm W 4-5 kts 11.3°c 1021.9 hPa 92% 0.0mm
24/10:00pm W 4-5 kts 11.4°c 1022.0 hPa 91% 0.0mm
24/09:30pm W 4 kts 11.4°c 1022.0 hPa 90% 0.0mm
24/09:00pm W 3-4 kts 11.5°c 1022.3 hPa 87% 0.0mm
24/08:30pm WNW 3-4 kts 12.3°c 1022.2 hPa 84% 0.0mm
24/08:00pm WNW 3-4 kts 13.6°c 1022.1 hPa 83% 0.0mm
24/07:30pm WNW 4-5 kts 13.4°c 1022.0 hPa 81% 0.0mm
24/07:00pm N 5-7 kts 13.9°c 1021.9 hPa 71% 0.0mm
24/06:30pm NE 7-8 kts 17.2°c 1021.7 hPa 64% 0.0mm
24/06:00pm ENE 8-10 kts 17.7°c 1021.5 hPa 62% 0.0mm
24/05:30pm NE 8-9 kts 17.5°c 1021.5 hPa 63% 0.0mm
24/05:00pm NE 8-10 kts 18.5°c 1021.4 hPa 57% 0.0mm
24/04:30pm ENE 8-10 kts 19.2°c 1021.3 hPa 56% 0.0mm
24/04:00pm ENE 9-11 kts 19.7°c 1021.2 hPa 52% 0.0mm
24/03:30pm ENE 9-12 kts 20.0°c 1021.3 hPa 55% 0.0mm
24/03:00pm E 9-11 kts 20.2°c 1021.3 hPa 54% 0.0mm
24/02:30pm E 9-10 kts 20.1°c 1021.5 hPa 52% 0.0mm
24/02:00pm ESE 8-10 kts 20.7°c 1021.8 hPa 51% 0.0mm
24/01:30pm ESE 8-10 kts 20.5°c 1022.1 hPa 50% 0.0mm
24/01:00pm ESE 7-9 kts 20.6°c 1022.5 hPa 47% 0.0mm
24/12:30pm ESE 8-10 kts 20.7°c 1023.1 hPa 47% 0.0mm
24/12:00pm ESE 7-9 kts 20.5°c 1023.7 hPa 47% 0.0mm
24/11:30am ESE 5-8 kts 20.8°c 1024.3 hPa 45% 0.0mm
24/11:00am SE 7-11 kts 20.0°c 1024.8 hPa 56% 0.0mm
24/10:30am SE 9-10 kts 19.7°c 1025.1 hPa 56% 0.0mm
24/10:00am SE 9-11 kts 19.3°c 1025.3 hPa 56% 0.0mm
24/09:30am SSE 9-11 kts 19.1°c 1025.4 hPa 57% 0.0mm
24/09:00am SSE 9-11 kts 18.5°c 1025.5 hPa 60% 0.0mm
24/08:30am SSW 4-8 kts 16.6°c 1025.4 hPa 68% 0.0mm
24/08:00am SSW 6-9 kts 15.5°c 1025.3 hPa 75% 0.0mm
24/07:30am SW 5-6 kts 13.1°c 1025.1 hPa 84% 0.0mm
24/07:00am SW 5-6 kts 12.1°c 1025.0 hPa 88% 0.0mm
24/06:30am WSW 5-6 kts 10.9°c 1024.7 hPa 92% 0.0mm
24/06:00am WSW 5-6 kts 10.4°c 1024.3 hPa 92% 0.0mm
24/05:30am WSW 5-6 kts 10.2°c 1024.2 hPa 92% 0.0mm
24/05:00am SW 5-6 kts 10.5°c 1023.9 hPa 94% 0.0mm
24/04:30am W 4 kts 9.4°c 1023.8 hPa 91% 0.0mm
24/04:00am W 4-5 kts 9.7°c 1023.7 hPa 89% 0.0mm
24/03:30am SW 5-6 kts 10.9°c 1023.5 hPa 91% 0.0mm
24/03:00am SW 5-6 kts 11.1°c 1023.5 hPa 91% 0.0mm
24/02:30am WSW 4-5 kts 10.7°c 1023.6 hPa 90% 0.0mm
24/02:00am W 4-5 kts 11.1°c 1023.6 hPa 89% 0.0mm
24/01:30am WSW 4-5 kts 11.9°c 1023.8 hPa 86% 0.0mm
24/01:00am SW 4-5 kts 12.4°c 1024.0 hPa 85% 0.0mm
24/12:30am SW 4-5 kts 12.5°c 1024.2 hPa 85% 0.0mm
24/12:00am SW 4-5 kts 12.5°c 1024.3 hPa 83% 0.0mm